sat.trackr.live / text

‹ back to catalog

STARLINK-4134

NORAD 53254 · 2022-086N

PAYLOAD ACTIVE UNKNOWN

§ Identity

Operator
Country
US
Launch date
2022-07-24
Launch site
AFETR
Launch vehicle
Mass (kg)
RCS (m²)

Purposes: comms

External: N2YO · Heavens-Above · Gunter

§ Orbital elements

Epoch: 2026-09-20T02:32:14.589024Z

Period
94.01 min
Inclination
53.1603°
Eccentricity
0.0001119
Mean motion
15.31682044 rev/d
Perigee alt
470.0 km
Apogee alt
471.6 km
Semi-major
6,848.9 km
B*
1.4618e-4
RAAN
35.6395°
Arg perigee
72.9836°
Mean anomaly
287.1288°
Rev number
23,050

§ Raw data

STARLINK-41341 53254U 22086N   26263.10572441  .00004171  00000+0  14618-3 0  99952 53254  53.1603  35.6395 0001119  72.9836 287.1288 15.31682044230507

JSON: /api/v1/satellites/53254 · /tle

For live sub-satellite position, see the globe view (requires WebGL).

§ Visibility from observer

Set your observer location to see the next 7 days of passes ≥ 10°. The values pass through the URL so the page stays shareable.

No JS? Fill the form by hand. The geolocation button needs JavaScript.